Tracking 20621 objects as of 30-Mar-2020
HD Live streaming from Space Station
objects crossing your sky now

PEGASUS DEB

Track PEGASUS DEB now!
10-day predictions


NORAD ID: 24091
Int'l Code: 1994-029EN
Perigee: 546.0 km
Apogee: 667.1 km
Inclination: 82.0 °
Period: 96.7 minutes
Semi major axis: 6977 km
RCS: 0.0602 m2 (small)
Launch date: May 19, 1994
Source: United States (US)
Launch site: AIR FORCE WESTERN TEST RANGE (AFWTR)

Note: This is SATELLITE DEBRIS
aabbcc
Your satellite tracking list
Your tracking list is empty




NASA's NSSDC Master Catalog

Two Line Element Set (TLE):
1 24091U 94029EN  20090.54957385  .00000290  00000-0  25667-4 0  9998
2 24091  82.0022 171.5992 0086747 147.4768 277.3450 14.89519795291496
Source of the keplerian elements: AFSPC